�N����,����,�~����,�C��,���x,�C��,����,���ϕ���,�ő�u�ԕ���,�ő厞����,���˗�,�I�_���x,�n�����x,�ő啗���N��,DTYPE
"17/12/21","00:10",0.0,-1.2,95.8,1018.7,308.7,1.2,2.2,332.6,0.00,-1.7,4.5,"00:02:00",1
"17/12/21","00:20",0.0,-1.2,95.8,1018.2,305.9,0.8,1.7,316.5,0.00,-1.7,4.6,"00:12:08",1
"17/12/21","00:30",0.0,-1.3,95.9,1018.5,296.4,1.2,1.7,304.9,0.00,-1.8,4.6,"00:28:24",1
"17/12/21","00:40",0.0,-1.0,96.6,1018.0,324.8,1.2,1.7,322.4,0.00,-1.4,4.7,"00:30:48",1
"17/12/21","00:50",0.0,-1.0,96.3,1018.0,313.7,1.0,1.9,319.4,0.00,-1.5,4.4,"00:43:12",1
"17/12/21","01:00",0.0,-1.3,95.5,1018.0,304.0,1.2,2.2,323.2,0.00,-1.9,4.5,"00:54:56",1
"17/12/21","01:10",0.0,-1.3,96.5,1018.2,307.1,0.7,1.7,309.5,0.00,-1.7,4.4,"01:03:52",1
"17/12/21","01:20",0.0,-1.2,96.1,1018.2,296.6,0.8,1.9,314.8,0.00,-1.7,4.3,"01:17:12",1
"17/12/21","01:30",0.0,-1.5,96.1,1018.2,325.6,1.8,2.4,332.5,0.00,-2.0,4.3,"01:25:12",1
"17/12/21","01:40",0.0,-1.3,96.7,1018.0,330.8,1.6,2.5,329.6,0.00,-1.7,4.1,"01:35:36",1
"17/12/21","01:50",0.0,-1.3,96.5,1018.2,331.2,1.5,2.6,322.0,0.00,-1.7,4.4,"01:41:28",1
"17/12/21","02:00",0.0,-1.6,96.7,1018.2,299.3,1.1,2.1,322.7,0.00,-2.0,4.2,"01:56:00",1
"17/12/21","02:10",0.0,-1.3,96.7,1018.2,13.4,0.5,1.2,272.4,0.00,-1.7,4.2,"02:09:20",1
"17/12/21","02:20",0.0,-1.6,96.1,1018.2,320.4,1.2,2.4,317.0,0.00,-2.1,3.8,"02:12:08",1
"17/12/21","02:30",0.0,-1.6,97.0,1018.0,305.1,1.6,2.7,336.1,0.00,-2.0,4.2,"02:21:12",1
"17/12/21","02:40",0.0,-1.5,97.2,1018.0,308.0,1.5,3.4,323.8,0.00,-1.8,4.1,"02:34:00",1
"17/12/21","02:50",0.0,-1.4,97.0,1018.2,308.1,1.7,2.7,335.0,0.00,-1.8,4.0,"02:45:36",1
"17/12/21","03:00",0.0,-1.3,97.6,1018.0,327.5,1.8,2.4,317.2,0.00,-1.6,4.1,"02:54:24",1
"17/12/21","03:10",0.0,-1.5,96.8,1018.2,318.5,1.2,2.0,322.7,0.00,-1.9,4.0,"03:02:56",1
"17/12/21","03:20",0.0,-1.6,97.5,1018.0,311.5,1.8,3.1,317.7,0.00,-1.9,3.9,"03:18:00",1
"17/12/21","03:30",0.0,-1.6,97.6,1018.2,343.5,0.7,1.3,270.6,0.00,-1.9,3.9,"03:20:08",1
"17/12/21","03:40",0.0,-1.9,97.2,1018.0,319.0,2.1,3.3,317.6,0.00,-2.2,4.1,"03:37:36",1
"17/12/21","03:50",0.0,-1.7,98.4,1017.8,301.0,1.5,2.4,342.7,0.00,-1.9,3.7,"03:49:12",1
"17/12/21","04:00",0.0,-1.6,96.9,1018.0,313.1,1.5,2.9,323.4,0.00,-2.0,3.7,"03:56:24",1
"17/12/21","04:10",0.0,-1.8,98.0,1017.5,302.7,1.7,2.5,314.6,0.00,-2.0,3.9,"04:00:48",1
"17/12/21","04:20",0.0,-1.9,96.7,1018.0,306.1,2.0,2.9,313.2,0.00,-2.3,3.8,"04:17:04",1
"17/12/21","04:30",0.0,-2.2,97.9,1018.0,311.9,2.2,2.8,320.5,0.00,-2.4,3.8,"04:21:20",1
"17/12/21","04:40",0.0,-2.1,98.9,1018.0,316.6,2.2,3.3,323.3,0.00,-2.2,3.6,"04:35:20",1
"17/12/21","04:50",0.0,-2.2,96.8,1018.2,315.9,2.3,3.5,318.2,0.00,-2.6,3.7,"04:47:20",1
"17/12/21","05:00",0.0,-2.4,99.0,1018.5,303.4,2.0,2.2,316.4,0.00,-2.5,3.8,"04:59:44",1
"17/12/21","05:10",0.0,-2.3,97.4,1018.2,308.0,2.2,3.3,311.1,0.00,-2.6,3.6,"05:01:04",1
"17/12/21","05:20",0.0,-2.3,99.2,1018.2,311.6,2.3,3.3,320.7,0.00,-2.4,3.7,"05:11:12",1
"17/12/21","05:30",0.0,-2.0,97.6,1018.7,314.4,2.0,2.9,314.0,0.00,-2.3,3.6,"05:24:40",1
"17/12/21","05:40",0.0,-2.3,98.5,1019.0,305.3,2.0,3.3,322.9,0.00,-2.5,3.6,"05:39:44",1
"17/12/21","05:50",0.0,-2.2,98.5,1019.0,309.9,2.2,3.2,323.4,0.00,-2.4,3.6,"05:40:48",1
"17/12/21","06:00",0.0,-2.3,98.4,1019.2,297.7,1.7,2.2,308.6,0.00,-2.5,3.5,"05:58:16",1
"17/12/21","06:10",0.0,-2.4,98.0,1019.4,304.3,1.8,2.6,317.4,0.00,-2.6,3.5,"06:01:44",1
"17/12/21","06:20",0.0,-2.5,98.3,1019.9,303.4,2.2,2.6,319.3,0.00,-2.7,3.6,"06:19:28",1
"17/12/21","06:30",0.0,-2.5,98.1,1019.4,312.8,2.2,2.9,317.6,0.00,-2.7,3.5,"06:22:16",1
"17/12/21","06:40",0.0,-2.5,98.5,1019.7,296.1,2.0,2.2,298.0,0.00,-2.7,3.3,"06:30:48",1
"17/12/21","06:50",0.0,-2.4,98.6,1019.4,313.2,2.2,2.8,319.7,0.00,-2.5,3.1,"06:42:24",1
"17/12/21","07:00",0.0,-2.5,98.6,1019.9,301.4,2.0,3.1,316.9,0.00,-2.6,3.4,"06:59:44",1
"17/12/21","07:10",0.0,-2.4,99.0,1019.7,306.9,2.2,2.9,315.0,0.00,-2.5,3.4,"07:00:24",1
"17/12/21","07:20",0.0,-2.3,98.7,1020.1,304.3,1.8,2.1,313.9,0.00,-2.4,3.4,"07:15:22",1
"17/12/21","07:30",0.0,-2.1,98.8,1020.1,309.3,2.2,2.7,321.5,0.00,-2.2,3.2,"07:25:12",1
"17/12/21","07:40",0.0,-1.6,99.4,1020.4,292.1,1.1,1.7,311.4,0.00,-1.6,3.3,"07:39:46",1
"17/12/21","07:50",0.0,-1.1,98.4,1020.6,303.7,1.3,2.7,323.0,0.01,-1.3,3.3,"07:49:44",1
"17/12/21","08:00",0.0,-0.8,98.0,1020.6,256.9,1.2,2.6,333.8,0.02,-1.0,3.2,"07:55:44",1
"17/12/21","08:10",0.0,0.1,97.7,1020.8,248.7,1.0,2.5,319.3,0.03,-0.2,3.4,"08:01:52",1
"17/12/21","08:20",0.0,0.7,96.4,1021.1,255.8,1.3,1.8,245.8,0.03,0.2,3.5,"08:14:08",1
"17/12/21","08:30",0.0,1.1,95.0,1021.8,256.4,1.6,2.6,240.2,0.04,0.4,3.7,"08:26:26",1
"17/12/21","08:40",0.0,1.6,91.8,1021.8,270.2,1.2,1.6,256.8,0.05,0.5,3.5,"08:32:08",1
"17/12/21","08:50",0.0,2.0,90.5,1022.0,282.2,1.3,1.7,299.0,0.07,0.7,3.5,"08:40:46",1
"17/12/21","09:00",0.0,2.3,89.2,1022.0,227.7,0.6,0.6,277.4,0.10,0.7,3.7,"08:57:36",1
"17/12/21","09:10",0.0,2.7,87.9,1022.3,250.2,0.5,0.5,243.1,0.13,0.9,3.9,"09:05:12",1
"17/12/21","09:20",0.0,2.9,86.9,1022.5,263.6,0.7,0.9,270.5,0.15,1.0,3.9,"09:15:02",1
"17/12/21","09:30",0.0,3.1,85.4,1022.5,7.7,0.5,0.6,332.1,0.17,0.9,4.0,"09:26:04",1
"17/12/21","09:40",0.0,3.7,84.9,1022.7,277.8,0.7,1.0,264.4,0.19,1.4,4.3,"09:30:50",1
"17/12/21","09:50",0.0,4.3,83.6,1023.0,193.5,0.6,1.3,138.6,0.21,1.8,4.6,"09:44:32",1
"17/12/21","10:00",0.0,4.4,82.7,1023.0,214.8,1.1,1.9,234.8,0.23,1.8,4.6,"09:52:36",1
"17/12/21","10:10",0.0,5.1,81.0,1023.2,200.5,0.8,1.8,148.5,0.26,2.2,4.8,"10:08:12",1
"17/12/21","10:20",0.0,5.6,78.9,1023.2,227.3,1.3,2.7,206.6,0.29,2.3,5.0,"10:13:48",1
"17/12/21","10:30",0.0,6.0,76.7,1023.4,201.9,0.8,2.2,130.0,0.32,2.3,5.2,"10:27:36",1
"17/12/21","10:40",0.0,6.5,74.8,1023.4,247.8,0.7,2.0,331.3,0.32,2.4,5.5,"10:30:56",1
"17/12/21","10:50",0.0,6.8,73.1,1023.4,262.2,0.7,1.7,323.9,0.33,2.4,5.8,"10:44:24",1
"17/12/21","11:00",0.0,7.5,69.9,1023.2,178.0,1.0,1.7,117.5,0.34,2.4,5.8,"10:55:20",1
"17/12/21","11:10",0.0,8.4,69.1,1023.2,239.8,1.3,2.4,213.3,0.37,3.1,6.2,"11:08:48",1
"17/12/21","11:20",0.0,8.3,66.2,1023.0,235.1,1.5,3.3,237.0,0.31,2.4,6.3,"11:12:24",1
"17/12/21","11:30",0.0,8.9,61.3,1022.7,330.5,2.5,4.8,343.6,0.31,1.9,6.5,"11:28:32",1
"17/12/21","11:40",0.0,9.0,59.6,1022.5,345.0,3.2,6.8,315.5,0.22,1.6,6.5,"11:35:12",1
"17/12/21","11:50",0.0,8.9,60.3,1022.0,316.6,3.2,5.9,327.6,0.18,1.7,6.7,"11:40:56",1
"17/12/21","12:00",0.0,8.4,60.1,1022.0,334.9,2.6,7.3,342.3,0.10,1.2,6.8,"11:58:32",1
"17/12/21","12:10",0.0,9.3,56.0,1021.8,337.0,3.1,6.3,334.2,0.20,1.0,6.7,"12:06:40",1
"17/12/21","12:20",0.0,9.0,54.3,1021.3,329.1,3.6,6.3,341.5,0.13,0.3,6.9,"12:18:32",1
"17/12/21","12:30",0.0,8.8,52.3,1021.8,335.3,3.7,5.6,333.5,0.10,-0.4,6.7,"12:25:44",1
"17/12/21","12:40",0.0,9.0,51.9,1021.3,335.8,3.0,5.4,319.7,0.11,-0.3,7.1,"12:37:28",1
"17/12/21","12:50",0.0,9.0,52.1,1021.3,330.3,3.1,4.8,328.1,0.12,-0.3,7.2,"12:46:16",1
"17/12/21","13:00",0.0,9.2,51.7,1021.3,318.0,3.5,4.7,337.1,0.07,-0.2,6.9,"12:55:52",1
"17/12/21","13:10",0.0,8.8,52.4,1020.8,320.6,3.2,6.2,317.7,0.05,-0.4,6.9,"13:06:16",1
"17/12/21","13:20",0.0,9.6,50.4,1020.8,315.5,2.6,3.9,344.6,0.15,-0.2,7.1,"13:10:48",1
"17/12/21","13:30",0.0,10.6,46.3,1021.1,291.0,2.1,3.4,316.1,0.36,-0.4,7.1,"13:28:56",1
"17/12/21","13:40",0.0,10.8,44.2,1021.3,279.6,2.2,4.2,306.5,0.38,-0.9,7.3,"13:36:24",1
"17/12/21","13:50",0.0,9.8,46.6,1021.1,277.8,2.1,3.3,307.9,0.19,-1.0,7.2,"13:46:32",1
"17/12/21","14:00",0.0,10.0,45.6,1021.3,316.0,3.0,5.5,321.5,0.09,-1.2,7.3,"13:54:32",1
"17/12/21","14:10",0.0,10.5,45.3,1021.1,306.7,2.7,4.7,335.2,0.09,-0.8,7.5,"14:08:48",1
"17/12/21","14:20",0.0,9.9,46.9,1020.8,302.6,2.7,4.7,313.3,0.08,-0.9,7.4,"14:18:24",1
"17/12/21","14:30",0.0,9.8,46.9,1020.8,309.2,3.4,5.7,335.2,0.09,-1.0,7.4,"14:26:32",1
"17/12/21","14:40",0.0,9.6,47.1,1020.8,300.2,3.2,4.8,309.9,0.09,-1.1,7.7,"14:38:56",1
"17/12/21","14:50",0.0,9.4,48.7,1020.6,312.8,3.1,5.4,329.0,0.09,-0.8,7.5,"14:48:32",1
"17/12/21","15:00",0.0,9.2,49.8,1020.8,323.2,3.0,4.9,325.4,0.04,-0.7,7.7,"14:51:12",1
"17/12/21","15:10",0.0,8.9,52.2,1020.6,328.2,3.4,5.8,315.4,0.03,-0.3,7.4,"15:05:44",1
"17/12/21","15:20",0.0,8.8,52.5,1020.6,317.7,2.6,3.6,332.9,0.02,-0.3,7.2,"15:11:36",1
"17/12/21","15:30",0.0,9.1,54.5,1020.6,304.5,2.0,2.9,322.1,0.05,0.5,7.6,"15:27:20",1
"17/12/21","15:40",0.0,9.1,56.0,1020.6,300.7,2.5,3.6,320.4,0.05,0.8,7.4,"15:38:32",1
"17/12/21","15:50",0.0,9.0,52.3,1021.1,328.3,2.8,5.4,341.9,0.05,-0.2,7.2,"15:48:16",1
"17/12/21","16:00",0.0,9.1,52.4,1021.1,334.0,3.0,4.7,336.3,0.04,-0.1,7.1,"15:53:36",1
"17/12/21","16:10",0.0,8.9,52.6,1021.1,325.4,3.0,3.9,324.0,0.02,-0.2,7.4,"16:01:44",1
"17/12/21","16:20",0.0,8.3,55.6,1020.8,306.8,2.1,4.0,322.2,0.00,0.0,7.3,"16:12:16",1
"17/12/21","16:30",0.0,7.5,58.6,1020.8,300.0,1.5,2.0,322.3,0.00,0.0,7.2,"16:25:52",1
"17/12/21","16:40",0.0,6.8,61.5,1020.6,299.5,1.7,2.5,314.4,0.00,0.0,7.0,"16:34:08",1
"17/12/21","16:50",0.0,6.1,66.1,1020.8,288.0,1.8,2.2,292.1,0.00,0.3,6.9,"16:45:36",1
"17/12/21","17:00",0.0,5.3,69.5,1021.1,291.5,1.7,2.1,291.5,0.00,0.2,6.9,"16:59:06",1
"17/12/21","17:10",0.0,4.7,73.1,1021.1,296.9,1.6,2.4,304.2,0.00,0.3,6.7,"17:06:18",1
"17/12/21","17:20",0.0,4.3,74.4,1021.1,293.8,1.6,2.0,315.8,0.00,0.2,6.7,"17:16:30",1
"17/12/21","17:30",0.0,4.1,75.9,1020.8,294.4,1.5,2.0,316.4,0.00,0.3,6.7,"17:25:46",1
"17/12/21","17:40",0.0,3.7,77.1,1021.1,278.1,1.0,1.3,269.7,0.00,0.1,6.2,"17:31:30",1
"17/12/21","17:50",0.0,3.5,77.9,1021.1,278.4,1.0,1.7,338.6,0.00,0.1,6.3,"17:43:56",1
"17/12/21","18:00",0.0,3.3,79.4,1020.8,274.3,0.7,1.2,317.4,0.00,0.1,6.2,"17:53:36",1
"17/12/21","18:10",0.0,3.3,80.6,1020.8,292.3,1.2,2.8,315.4,0.00,0.3,6.1,"18:01:12",1
"17/12/21","18:20",0.0,3.3,80.0,1021.1,296.6,1.6,2.0,308.1,0.00,0.2,6.2,"18:12:24",1
"17/12/21","18:30",0.0,3.3,80.3,1020.6,278.2,1.8,2.4,266.8,0.00,0.3,5.9,"18:27:52",1
"17/12/21","18:40",0.0,3.2,80.5,1020.8,293.1,1.8,2.6,321.6,0.00,0.2,5.9,"18:38:16",1
"17/12/21","18:50",0.0,2.9,80.5,1021.3,307.8,2.0,2.5,322.0,0.00,-0.1,5.6,"18:47:28",1
"17/12/21","19:00",0.0,2.5,82.8,1020.8,294.9,1.8,2.4,308.9,0.00,-0.1,5.7,"18:58:08",1
"17/12/21","19:10",0.0,2.2,84.4,1020.8,302.2,1.8,2.4,314.2,0.00,-0.1,5.6,"19:02:56",1
"17/12/21","19:20",0.0,2.6,84.3,1020.8,327.0,2.2,3.1,322.7,0.00,0.3,5.5,"19:10:16",1
"17/12/21","19:30",0.0,2.3,84.9,1020.6,307.1,2.1,3.1,320.5,0.00,0.1,5.4,"19:26:08",1
"17/12/21","19:40",0.0,1.8,85.4,1020.8,307.8,2.1,2.8,317.2,0.00,-0.3,5.5,"19:33:20",1
"17/12/21","19:50",0.0,1.5,87.7,1021.1,279.1,1.5,1.8,272.1,0.00,-0.3,5.2,"19:49:28",1
"17/12/21","20:00",0.0,1.6,89.0,1021.1,295.0,2.0,2.9,308.7,0.00,0.0,5.2,"19:55:52",1
"17/12/21","20:10",0.0,1.7,88.3,1020.8,276.2,2.0,2.8,270.8,0.00,0.0,5.1,"20:06:24",1
"17/12/21","20:20",0.0,1.6,88.2,1020.8,290.5,1.7,2.1,283.9,0.00,-0.1,5.0,"20:10:16",1
"17/12/21","20:30",0.0,1.1,87.7,1021.1,303.3,1.2,2.2,318.3,0.00,-0.7,5.2,"20:22:32",1
"17/12/21","20:40",0.0,0.4,89.5,1020.8,329.8,2.1,2.9,331.9,0.00,-1.1,5.0,"20:35:52",1
"17/12/21","20:50",0.0,0.1,91.3,1020.6,310.5,1.5,2.5,330.9,0.00,-1.1,5.0,"20:40:40",1
"17/12/21","21:00",0.0,0.2,93.5,1020.8,292.8,1.0,2.0,316.9,0.00,-0.7,4.9,"20:58:48",1
"17/12/21","21:10",0.0,0.7,93.3,1020.8,328.9,1.6,2.4,333.1,0.00,-0.2,4.8,"21:07:12",1
"17/12/21","21:20",0.0,0.5,93.3,1020.8,299.6,1.2,1.8,330.1,0.00,-0.4,4.7,"21:10:24",1
"17/12/21","21:30",0.0,0.3,93.5,1020.6,306.6,1.2,1.6,304.4,0.00,-0.6,4.7,"21:27:12",1
"17/12/21","21:40",0.0,0.2,93.6,1020.6,301.6,1.0,1.7,298.2,0.00,-0.7,4.6,"21:30:56",1
"17/12/21","21:50",0.0,-0.1,93.6,1020.6,312.3,0.6,1.4,312.1,0.00,-1.0,4.7,"21:42:32",1
"17/12/21","22:00",0.0,-0.7,93.8,1020.4,336.9,1.6,2.1,336.3,0.00,-1.5,4.7,"21:52:56",1
"17/12/21","22:10",0.0,-0.7,95.4,1020.6,332.8,1.2,1.9,326.1,0.00,-1.3,4.5,"22:00:24",1
"17/12/21","22:20",0.0,-0.4,96.5,1020.6,341.0,0.7,1.2,331.4,0.00,-0.8,4.3,"22:10:48",1
"17/12/21","22:30",0.0,-0.6,95.3,1020.4,279.8,0.6,1.2,338.3,0.00,-1.2,4.5,"22:20:32",1
"17/12/21","22:40",0.0,-0.5,96.9,1020.1,306.8,0.5,1.2,314.6,0.00,-0.9,4.3,"22:33:52",1
"17/12/21","22:50",0.0,-0.6,96.1,1019.9,323.7,1.1,1.9,317.5,0.00,-1.1,4.4,"22:42:16",1
"17/12/21","23:00",0.0,-1.0,96.2,1019.7,315.9,1.0,1.4,317.0,0.00,-1.5,4.3,"22:53:44",1
"17/12/21","23:10",0.0,-1.2,96.8,1019.7,293.2,0.8,1.2,288.6,0.00,-1.6,4.1,"23:03:44",1
"17/12/21","23:20",0.0,-1.3,96.2,1019.7,347.8,1.2,3.5,325.4,0.00,-1.8,4.2,"23:19:36",1
"17/12/21","23:30",0.0,-1.6,97.7,1020.4,315.0,1.8,2.8,334.4,0.00,-1.9,4.1,"23:21:12",1
"17/12/21","23:40",0.0,-1.0,97.9,1020.1,327.7,1.6,2.5,322.6,0.00,-1.2,4.1,"23:31:36",1
"17/12/21","23:50",0.0,-0.8,98.1,1019.9,311.2,1.1,1.8,340.4,0.00,-1.0,4.2,"23:41:28",1
"17/12/21","24:00",0.0,-0.8,96.8,1019.9,293.3,1.0,1.8,303.6,0.00,-1.2,3.9,"23:57:54",1
